Location: Alto Pass Reservoir
(37.5801°N, 89.3084°W)
Time: 13:19:43
(UTC+00:00)

CZ-2C R/B - Pass Details

Date: 08 December 2021
Orbit: 386 x 571 km, 35.0° (Epoch: 19 January)

Event Time Altitude Azimuth Distance (km) Brightness Sun altitude
Rises 23:17:58 0° 253° (WSW) 2,774 7.3 -7.8°
Reaches altitude 10° 23:20:19 10° 249° (WSW) 1,872 5.8 -8.3°
Maximum altitude 23:24:34 55° 172° (S) 678 1.9 -9.1°
Enters shadow 23:28:38 10° 94° (E) 1,792 3.4 -9.8°
